Station Historical Data
Daily Summary for January 23, 2017 Units:  English    Metric   Both
Next Day »
Daily Weekly Monthly Yearly Custom
  High: Low: Average:
Temperature: 35.5 °F 32.7 °F 33.4 °F
Dew Point: 34.5 °F 31.6 °F 32.4 °F
Humidity: 96% 95% 96%
Wind Speed: 7.0mph 0.0mph 0.2mph
Wind Gust: 11.0mph - -
Wind- - SE
Pressure: 30.00 in 29.75 in -
Precipitation: 0.00 in    
Historical Graphs
 
 
Tabular Data for January 23, 2017
Time Temperature Dew Point Pressure Wind Wind Speed Wind Gust Humidity Rainfall Rate (Hourly) solar Conditions
00:01 33.1 °F 32.1 °F 29.76 in Calm     96% 0.00 in 0.00 W/m2
00:06 33.1 °F 32.1 °F 29.75 in Calm     96% 0.00 in 0.00 W/m2
00:11 33.1 °F 32.1 °F 29.75 in SE 5.0 mph 7.0 mph 96% 0.00 in 0.00 W/m2
00:16 33.1 °F 32.1 °F 29.75 in Calm   7.0 mph 96% 0.00 in 0.00 W/m2
00:21 33.1 °F 32.1 °F 29.75 in Calm   1.0 mph 96% 0.00 in 0.00 W/m2
00:26 33.1 °F 32.1 °F 29.75 in Calm   1.0 mph 96% 0.00 in 0.00 W/m2
00:31 33.1 °F 32.1 °F 29.75 in Calm   1.0 mph 96% 0.00 in 0.00 W/m2
00:36 33.2 °F 32.2 °F 29.75 in SE 1.0 mph 1.0 mph 96% 0.00 in 0.00 W/m2
00:41 33.1 °F 32.1 °F 29.75 in Calm   1.0 mph 96% 0.00 in 0.00 W/m2
00:46 33.1 °F 32.1 °F 29.75 in Calm   1.0 mph 96% 0.00 in 0.00 W/m2
00:51 33.1 °F 32.1 °F 29.76 in Calm   1.0 mph 96% 0.13 in 0.00 W/m2
00:56 33.1 °F 32.1 °F 29.75 in Calm   1.0 mph 96% 0.14 in 0.00 W/m2
01:01 33.1 °F 32.1 °F 29.76 in Calm   1.0 mph 96% 0.09 in 0.00 W/m2
01:06 33.0 °F 32.0 °F 29.76 in Calm   1.0 mph 96% 0.18 in 0.00 W/m2
01:11 33.0 °F 32.0 °F 29.76 in Calm     96% 0.12 in 0.00 W/m2
01:16 33.0 °F 32.0 °F 29.76 in Calm     96% 0.09 in 0.00 W/m2
01:21 33.0 °F 31.7 °F 29.76 in Calm     95% 0.05 in 0.00 W/m2
01:26 33.0 °F 32.0 °F 29.76 in Calm     96% 0.04 in 0.00 W/m2
01:31 33.0 °F 32.0 °F 29.76 in Calm     96% 0.04 in 0.00 W/m2
01:36 33.0 °F 31.7 °F 29.76 in Calm     95% 0.04 in 0.00 W/m2
01:41 33.0 °F 31.7 °F 29.77 in Calm     95% 0.00 in 0.00 W/m2
01:46 33.0 °F 31.7 °F 29.77 in Calm     95% 0.00 in 0.00 W/m2
01:51 33.0 °F 31.7 °F 29.77 in Calm     95% 0.00 in 0.00 W/m2
01:56 32.9 °F 31.6 °F 29.77 in Calm     95% 0.00 in 0.00 W/m2
02:01 32.9 °F 31.6 °F 29.77 in Calm     95% 0.00 in 0.00 W/m2
02:06 33.0 °F 32.0 °F 29.77 in Calm     96% 0.00 in 0.00 W/m2
02:11 33.0 °F 31.7 °F 29.77 in Calm     95% 0.00 in 0.00 W/m2
02:16 33.0 °F 32.0 °F 29.77 in Calm     96% 0.00 in 0.00 W/m2
02:21 33.0 °F 32.0 °F 29.77 in Calm     96% 0.00 in 0.00 W/m2
02:26 33.0 °F 32.0 °F 29.77 in SSE 1.0 mph 1.0 mph 96% 0.00 in 0.00 W/m2
02:31 33.0 °F 32.0 °F 29.77 in Calm     96% 0.00 in 0.00 W/m2
02:36 33.1 °F 32.1 °F 29.78 in Calm     96% 0.00 in 0.00 W/m2
02:41 33.0 °F 32.0 °F 29.78 in Calm     96% 0.00 in 0.00 W/m2
02:46 33.1 °F 32.1 °F 29.78 in Calm     96% 0.00 in 0.00 W/m2
02:51 33.1 °F 32.1 °F 29.79 in Calm     96% 0.00 in 0.00 W/m2
02:56 33.0 °F 32.0 °F 29.78 in Calm     96% 0.00 in 0.00 W/m2
02:57 33.0 °F 32.0 °F 29.78 in Calm     96% 0.00 in 0.00 W/m2
03:02 33.0 °F 32.0 °F 29.79 in Calm     96% 0.00 in 0.00 W/m2
03:07 33.0 °F 32.0 °F 29.79 in Calm     96% 0.00 in 0.00 W/m2
03:12 33.0 °F 32.0 °F 29.79 in Calm     96% 0.00 in 0.00 W/m2
03:17 33.0 °F 32.0 °F 29.79 in Calm     96% 0.00 in 0.00 W/m2
03:22 33.0 °F 32.0 °F 29.79 in Calm     96% 0.00 in 0.00 W/m2
03:27 33.0 °F 32.0 °F 29.79 in Calm     96% 0.00 in 0.00 W/m2
03:32 33.0 °F 32.0 °F 29.79 in Calm     96% 0.00 in 0.00 W/m2
03:37 33.0 °F 32.0 °F 29.79 in Calm     96% 0.00 in 0.00 W/m2
03:42 33.0 °F 32.0 °F 29.79 in Calm     96% 0.00 in 0.00 W/m2
03:47 33.0 °F 32.0 °F 29.79 in Calm     96% 0.00 in 0.00 W/m2
03:52 33.0 °F 32.0 °F 29.80 in Calm     96% 0.00 in 0.00 W/m2
03:57 33.0 °F 32.0 °F 29.80 in Calm     96% 0.00 in 0.00 W/m2
04:02 33.0 °F 32.0 °F 29.80 in Calm     96% 0.00 in 0.00 W/m2
04:07 33.0 °F 32.0 °F 29.80 in Calm     96% 0.00 in 0.00 W/m2
04:12 33.1 °F 32.1 °F 29.80 in Calm     96% 0.00 in 0.00 W/m2
04:17 33.1 °F 32.1 °F 29.80 in Calm     96% 0.00 in 0.00 W/m2
04:22 33.1 °F 32.1 °F 29.80 in Calm     96% 0.00 in 0.00 W/m2
04:27 33.1 °F 32.1 °F 29.80 in Calm     96% 0.00 in 0.00 W/m2
04:32 33.1 °F 32.1 °F 29.80 in Calm     96% 0.00 in 0.00 W/m2
04:37 33.1 °F 32.1 °F 29.80 in Calm     96% 0.00 in 0.00 W/m2
04:42 33.1 °F 32.1 °F 29.80 in Calm     96% 0.00 in 0.00 W/m2
04:47 33.1 °F 32.1 °F 29.80 in Calm     96% 0.00 in 0.00 W/m2
04:52 33.1 °F 32.1 °F 29.80 in Calm     96% 0.00 in 0.00 W/m2
04:57 33.1 °F 32.1 °F 29.80 in Calm     96% 0.00 in 0.00 W/m2
05:02 33.1 °F 32.1 °F 29.80 in Calm     96% 0.00 in 0.00 W/m2
05:07 33.1 °F 32.1 °F 29.81 in Calm     96% 0.00 in 0.00 W/m2
05:12 33.1 °F 32.1 °F 29.81 in Calm     96% 0.00 in 0.00 W/m2
05:17 33.1 °F 32.1 °F 29.81 in Calm     96% 0.00 in 0.00 W/m2
05:22 33.1 °F 32.1 °F 29.81 in Calm     96% 0.00 in 0.00 W/m2
05:27 33.1 °F 32.1 °F 29.81 in Calm     96% 0.00 in 0.00 W/m2
05:32 33.1 °F 32.1 °F 29.81 in Calm     96% 0.00 in 0.00 W/m2
05:37 33.1 °F 32.1 °F 29.81 in Calm     96% 0.09 in 0.00 W/m2
05:42 33.0 °F 32.0 °F 29.82 in Calm     96% 0.06 in 0.00 W/m2
05:47 33.0 °F 32.0 °F 29.82 in Calm     96% 0.04 in 0.00 W/m2
05:52 33.0 °F 31.7 °F 29.82 in Calm     95% 0.04 in 0.00 W/m2
05:57 33.0 °F 31.7 °F 29.82 in Calm     95% 0.13 in 0.00 W/m2
06:02 32.9 °F 31.6 °F 29.82 in Calm     95% 0.07 in 0.00 W/m2
06:07 32.9 °F 31.6 °F 29.82 in Calm     95% 0.07 in 0.00 W/m2
06:12 32.9 °F 31.9 °F 29.83 in Calm     96% 0.06 in 0.00 W/m2
06:17 32.9 °F 31.9 °F 29.83 in Calm     96% 0.04 in 0.00 W/m2
06:22 32.9 °F 31.9 °F 29.83 in Calm     96% 0.00 in 0.00 W/m2
06:27 32.9 °F 31.9 °F 29.83 in Calm     96% 0.00 in 0.00 W/m2
06:32 32.9 °F 31.9 °F 29.83 in Calm     96% 0.00 in 0.00 W/m2
06:37 32.9 °F 31.9 °F 29.83 in Calm     96% 0.00 in 0.00 W/m2
06:42 32.9 °F 31.9 °F 29.83 in Calm     96% 0.00 in 0.00 W/m2
06:47 32.9 °F 31.9 °F 29.84 in Calm     96% 0.00 in 0.00 W/m2
06:52 32.8 °F 31.8 °F 29.84 in Calm     96% 0.00 in 0.00 W/m2
06:58 32.9 °F 31.9 °F 29.84 in Calm     96% 0.00 in 0.00 W/m2
07:02 32.9 °F 31.9 °F 29.84 in Calm     96% 0.00 in 0.00 W/m2
07:08 32.9 °F 31.9 °F 29.84 in Calm     96% 0.00 in 0.00 W/m2
07:13 32.9 °F 31.9 °F 29.85 in Calm     96% 0.00 in 0.00 W/m2
07:18 32.9 °F 31.9 °F 29.85 in Calm     96% 0.00 in 0.00 W/m2
07:23 32.9 °F 31.9 °F 29.85 in Calm     96% 0.00 in 0.00 W/m2
07:28 32.9 °F 31.9 °F 29.85 in Calm     96% 0.00 in 0.00 W/m2
07:33 32.9 °F 31.9 °F 29.85 in Calm     96% 0.00 in 0.00 W/m2
07:38 32.9 °F 31.9 °F 29.85 in Calm     96% 0.00 in 0.00 W/m2
07:43 32.9 °F 31.9 °F 29.85 in Calm     96% 0.00 in 0.00 W/m2
07:48 32.9 °F 31.9 °F 29.86 in Calm     96% 0.00 in 0.00 W/m2
07:53 32.9 °F 31.9 °F 29.86 in Calm     96% 0.00 in 5.00 W/m2
07:58 32.9 °F 31.9 °F 29.86 in Calm     96% 0.05 in 5.00 W/m2
08:03 32.9 °F 31.9 °F 29.87 in Calm     96% 0.05 in 7.00 W/m2
08:08 33.0 °F 32.0 °F 29.87 in Calm     96% 0.05 in 11.00 W/m2
08:13 32.9 °F 31.9 °F 29.87 in Calm     96% 0.04 in 12.00 W/m2
08:18 32.9 °F 31.9 °F 29.87 in Calm     96% 0.00 in 14.00 W/m2
08:23 32.9 °F 31.9 °F 29.88 in Calm     96% 0.00 in 14.00 W/m2
08:28 32.9 °F 31.9 °F 29.88 in Calm     96% 0.00 in 14.00 W/m2
08:33 32.9 °F 31.9 °F 29.88 in Calm     96% 0.00 in 16.00 W/m2
08:38 32.9 °F 31.9 °F 29.88 in Calm     96% 0.00 in 18.00 W/m2
08:43 32.9 °F 31.9 °F 29.88 in Calm     96% 0.00 in 21.00 W/m2
08:48 32.9 °F 31.9 °F 29.89 in Calm     96% 0.00 in 23.00 W/m2
08:53 33.0 °F 32.0 °F 29.89 in Calm     96% 0.00 in 30.00 W/m2
08:58 33.0 °F 32.0 °F 29.89 in Calm     96% 0.00 in 33.00 W/m2
09:03 33.0 °F 32.0 °F 29.89 in Calm     96% 0.00 in 42.00 W/m2
09:08 33.0 °F 32.0 °F 29.89 in Calm     96% 0.00 in 46.00 W/m2
09:13 33.0 °F 32.0 °F 29.89 in Calm     96% 0.00 in 46.00 W/m2
09:18 33.0 °F 32.0 °F 29.89 in Calm     96% 0.00 in 40.00 W/m2
09:23 33.1 °F 32.1 °F 29.90 in Calm     96% 0.00 in 49.00 W/m2
09:28 33.1 °F 32.1 °F 29.90 in Calm     96% 0.00 in 58.00 W/m2
09:33 33.1 °F 32.1 °F 29.90 in Calm     96% 0.00 in 62.00 W/m2
09:38 33.1 °F 32.1 °F 29.90 in Calm     96% 0.00 in 58.00 W/m2
09:43 33.2 °F 32.2 °F 29.91 in Calm     96% 0.00 in 54.00 W/m2
09:48 33.2 °F 32.2 °F 29.91 in Calm     96% 0.00 in 53.00 W/m2
09:53 33.2 °F 32.2 °F 29.91 in Calm     96% 0.00 in 51.00 W/m2
09:58 33.3 °F 32.3 °F 29.91 in Calm     96% 0.00 in 56.00 W/m2
10:03 33.3 °F 32.3 °F 29.92 in Calm     96% 0.00 in 49.00 W/m2
10:08 33.3 °F 32.3 °F 29.92 in Calm     96% 0.00 in 58.00 W/m2
10:13 33.3 °F 32.3 °F 29.92 in Calm     96% 0.00 in 86.00 W/m2
10:19 33.3 °F 32.3 °F 29.92 in Calm     96% 0.00 in 100.00 W/m2
10:24 33.3 °F 32.3 °F 29.92 in Calm     96% 0.00 in 88.00 W/m2
10:29 33.4 °F 32.4 °F 29.93 in Calm     96% 0.00 in 81.00 W/m2
10:34 33.4 °F 32.4 °F 29.93 in Calm     96% 0.00 in 97.00 W/m2
10:39 33.4 °F 32.4 °F 29.93 in Calm     96% 0.00 in 84.00 W/m2
10:44 33.5 °F 32.5 °F 29.93 in Calm     96% 0.00 in 121.00 W/m2
10:49 33.6 °F 32.6 °F 29.93 in Calm     96% 0.00 in 105.00 W/m2
10:54 33.6 °F 32.6 °F 29.93 in Calm     96% 0.00 in 105.00 W/m2
10:59 33.7 °F 32.7 °F 29.93 in Calm     96% 0.00 in 104.00 W/m2
11:04 33.8 °F 32.8 °F 29.93 in Calm     96% 0.00 in 109.00 W/m2
11:09 33.8 °F 32.8 °F 29.93 in Calm     96% 0.00 in 100.00 W/m2
11:14 33.8 °F 32.8 °F 29.93 in Calm     96% 0.00 in 90.00 W/m2
11:19 33.9 °F 32.9 °F 29.93 in Calm     96% 0.00 in 84.00 W/m2
11:24 33.9 °F 32.9 °F 29.92 in Calm     96% 0.00 in 65.00 W/m2
11:29 33.9 °F 32.9 °F 29.93 in Calm     96% 0.00 in 120.00 W/m2
11:34 33.9 °F 32.9 °F 29.92 in Calm     96% 0.00 in 199.00 W/m2
11:39 34.0 °F 33.0 °F 29.92 in Calm     96% 0.00 in 158.00 W/m2
11:44 34.1 °F 33.1 °F 29.92 in Calm     96% 0.00 in 125.00 W/m2
11:49 34.2 °F 33.2 °F 29.92 in Calm     96% 0.00 in 127.00 W/m2
11:54 34.2 °F 33.2 °F 29.92 in Calm     96% 0.00 in 230.00 W/m2
11:59 34.3 °F 33.3 °F 29.92 in Calm     96% 0.00 in 475.00 W/m2
12:04 34.6 °F 33.6 °F 29.92 in Calm   5.0 mph 96% 0.00 in 429.00 W/m2
12:09 34.8 °F 33.8 °F 29.92 in Calm   1.0 mph 96% 0.00 in 376.00 W/m2
12:14 34.8 °F 33.8 °F 29.91 in Calm     96% 0.00 in 267.00 W/m2
12:19 34.9 °F 33.9 °F 29.92 in SSE 1.0 mph 4.0 mph 96% 0.00 in 271.00 W/m2
12:24 35.0 °F 34.0 °F 29.91 in Calm   4.0 mph 96% 0.00 in 230.00 W/m2
12:29 35.1 °F 34.1 °F 29.91 in SSE 1.0 mph 2.0 mph 96% 0.00 in 181.00 W/m2
12:34 35.2 °F 34.2 °F 29.91 in Calm   2.0 mph 96% 0.00 in 146.00 W/m2
12:39 35.2 °F 34.2 °F 29.91 in Calm   1.0 mph 96% 0.00 in 148.00 W/m2
12:44 35.2 °F 34.2 °F 29.91 in Calm   1.0 mph 96% 0.00 in 178.00 W/m2
12:49 35.3 °F 34.3 °F 29.91 in Calm   1.0 mph 96% 0.00 in 279.00 W/m2
12:54 35.3 °F 34.3 °F 29.90 in Calm   1.0 mph 96% 0.00 in 186.00 W/m2
12:59 35.3 °F 34.3 °F 29.90 in Calm     96% 0.00 in 116.00 W/m2
13:04 35.3 °F 34.3 °F 29.90 in Calm     96% 0.00 in 95.00 W/m2
13:09 35.3 °F 34.3 °F 29.90 in Calm     96% 0.00 in 107.00 W/m2
13:14 35.3 °F 34.3 °F 29.91 in Calm     96% 0.00 in 83.00 W/m2
13:19 35.2 °F 34.2 °F 29.91 in Calm     96% 0.00 in 33.00 W/m2
13:24 35.1 °F 34.1 °F 29.91 in Calm     96% 0.00 in 35.00 W/m2
13:29 34.9 °F 33.9 °F 29.90 in Calm     96% 0.07 in 65.00 W/m2
13:34 34.6 °F 33.6 °F 29.90 in Calm     96% 0.10 in 153.00 W/m2
13:39 34.3 °F 33.3 °F 29.91 in Calm     96% 0.14 in 288.00 W/m2
13:44 34.1 °F 33.1 °F 29.90 in Calm     96% 0.10 in 380.00 W/m2
13:49 34.0 °F 33.0 °F 29.90 in Calm   4.0 mph 96% 0.07 in 193.00 W/m2
13:55 34.1 °F 32.8 °F 29.90 in South 1.0 mph 11.0 mph 95% 0.04 in 260.00 W/m2
14:00 34.3 °F 33.3 °F 29.90 in Calm   4.0 mph 96% 0.00 in 396.00 W/m2
14:05 34.6 °F 33.6 °F 29.90 in Calm   2.0 mph 96% 0.00 in 236.00 W/m2
14:10 34.8 °F 33.8 °F 29.91 in South 2.0 mph 5.0 mph 96% 0.00 in 188.00 W/m2
14:15 35.0 °F 34.0 °F 29.91 in South 2.0 mph 4.0 mph 96% 0.00 in 137.00 W/m2
14:20 35.1 °F 34.1 °F 29.91 in South 1.0 mph 4.0 mph 96% 0.00 in 114.00 W/m2
14:25 35.1 °F 34.1 °F 29.91 in Calm   11.0 mph 96% 0.00 in 167.00 W/m2
14:30 35.1 °F 34.1 °F 29.91 in Calm   2.0 mph 96% 0.00 in 295.00 W/m2
14:35 35.2 °F 34.2 °F 29.91 in Calm   2.0 mph 96% 0.00 in 322.00 W/m2
14:40 35.3 °F 34.3 °F 29.91 in Calm   2.0 mph 96% 0.00 in 464.00 W/m2
14:45 35.3 °F 34.3 °F 29.91 in Calm   4.0 mph 96% 0.00 in 350.00 W/m2
14:50 35.5 °F 34.5 °F 29.91 in SE 1.0 mph 4.0 mph 96% 0.00 in 165.00 W/m2
14:55 35.5 °F 34.5 °F 29.91 in SE 2.0 mph 2.0 mph 96% 0.00 in 86.00 W/m2
15:00 35.5 °F 34.5 °F 29.91 in Calm   2.0 mph 96% 0.00 in 97.00 W/m2
15:05 35.5 °F 34.5 °F 29.91 in Calm     96% 0.00 in 86.00 W/m2
15:10 35.5 °F 34.5 °F 29.91 in Calm     96% 0.00 in 62.00 W/m2
15:15 35.5 °F 34.5 °F 29.91 in Calm   1.0 mph 96% 0.00 in 47.00 W/m2
15:20 35.4 °F 34.4 °F 29.91 in SE 2.0 mph 2.0 mph 96% 0.00 in 37.00 W/m2
15:25 35.3 °F 34.3 °F 29.91 in Calm   6.0 mph 96% 0.00 in 23.00 W/m2
15:30 35.3 °F 34.3 °F 29.91 in SE 1.0 mph 4.0 mph 96% 0.00 in 25.00 W/m2
15:35 35.2 °F 34.2 °F 29.91 in Calm   4.0 mph 96% 0.00 in 32.00 W/m2
15:40 35.1 °F 34.1 °F 29.91 in Calm   4.0 mph 96% 0.00 in 33.00 W/m2
15:45 35.0 °F 34.0 °F 29.92 in Calm   4.0 mph 96% 0.00 in 28.00 W/m2
15:50 34.9 °F 33.9 °F 29.92 in Calm   1.0 mph 96% 0.00 in 16.00 W/m2
15:55 34.8 °F 33.8 °F 29.92 in Calm   2.0 mph 96% 0.00 in 9.00 W/m2
16:00 34.8 °F 33.8 °F 29.92 in Calm     96% 0.00 in 11.00 W/m2
16:05 34.6 °F 33.6 °F 29.92 in Calm     96% 0.00 in 11.00 W/m2
16:10 34.5 °F 33.5 °F 29.92 in Calm     96% 0.10 in 9.00 W/m2
16:15 34.4 °F 33.4 °F 29.92 in Calm     96% 0.06 in 5.00 W/m2
16:20 34.2 °F 33.2 °F 29.92 in Calm     96% 0.04 in 5.00 W/m2
16:25 34.1 °F 33.1 °F 29.92 in Calm     96% 0.04 in 0.00 W/m2
16:30 33.9 °F 32.9 °F 29.93 in Calm     96% 0.08 in 0.00 W/m2
16:35 33.7 °F 32.7 °F 29.93 in Calm     96% 0.08 in 0.00 W/m2
16:40 33.6 °F 32.6 °F 29.93 in Calm     96% 0.05 in 0.00 W/m2
16:45 33.5 °F 32.2 °F 29.93 in Calm   5.0 mph 95% 0.04 in 0.00 W/m2
16:50 33.3 °F 32.0 °F 29.93 in SE 1.0 mph 4.0 mph 95% 0.14 in 0.00 W/m2
16:55 33.3 °F 32.3 °F 29.93 in Calm     96% 0.21 in 5.00 W/m2
17:00 33.2 °F 32.2 °F 29.93 in Calm     96% 0.19 in 0.00 W/m2
17:05 33.2 °F 32.2 °F 29.93 in Calm     96% 0.21 in 0.00 W/m2
17:10 33.1 °F 32.1 °F 29.93 in Calm     96% 0.23 in 0.00 W/m2
17:15 33.1 °F 32.1 °F 29.93 in Calm     96% 0.19 in 0.00 W/m2
17:20 33.0 °F 32.0 °F 29.93 in Calm     96% 0.20 in 0.00 W/m2
17:25 33.0 °F 32.0 °F 29.93 in Calm     96% 0.12 in 0.00 W/m2
17:30 33.0 °F 32.0 °F 29.93 in Calm     96% 0.12 in 0.00 W/m2
17:35 33.0 °F 31.7 °F 29.94 in Calm     95% 0.10 in 0.00 W/m2
17:40 33.0 °F 31.7 °F 29.94 in Calm     95% 0.07 in 0.00 W/m2
17:45 32.9 °F 31.6 °F 29.94 in Calm     95% 0.07 in 0.00 W/m2
17:50 32.9 °F 31.6 °F 29.94 in Calm     95% 0.08 in 0.00 W/m2
17:55 32.9 °F 31.6 °F 29.94 in Calm     95% 0.07 in 0.00 W/m2
18:00 32.9 °F 31.6 °F 29.94 in Calm     95% 0.05 in 0.00 W/m2
18:06 32.9 °F 31.6 °F 29.94 in Calm     95% 0.05 in 0.00 W/m2
18:11 32.9 °F 31.6 °F 29.94 in Calm     95% 0.05 in 0.00 W/m2
18:16 32.9 °F 31.6 °F 29.94 in Calm     95% 0.04 in 0.00 W/m2
18:21 32.9 °F 31.6 °F 29.94 in Calm     95% 0.00 in 0.00 W/m2
18:26 32.9 °F 31.6 °F 29.95 in Calm     95% 0.00 in 0.00 W/m2
18:31 32.9 °F 31.6 °F 29.95 in Calm     95% 0.00 in 0.00 W/m2
18:36 32.9 °F 31.6 °F 29.95 in Calm     95% 0.00 in 0.00 W/m2
18:41 32.9 °F 31.6 °F 29.95 in Calm     95% 0.00 in 0.00 W/m2
18:46 32.9 °F 31.6 °F 29.96 in Calm     95% 0.00 in 0.00 W/m2
18:51 32.9 °F 31.6 °F 29.96 in Calm     95% 0.05 in 0.00 W/m2
18:56 32.9 °F 31.6 °F 29.96 in Calm     95% 0.05 in 0.00 W/m2
19:01 32.9 °F 31.6 °F 29.96 in Calm     95% 0.05 in 0.00 W/m2
19:06 32.9 °F 31.9 °F 29.96 in Calm     96% 0.04 in 0.00 W/m2
19:11 32.9 °F 31.6 °F 29.96 in Calm     95% 0.00 in 0.00 W/m2
19:16 32.9 °F 31.6 °F 29.96 in SE 1.0 mph 8.0 mph 95% 0.00 in 0.00 W/m2
19:21 32.9 °F 31.6 °F 29.97 in Calm   2.0 mph 95% 0.00 in 0.00 W/m2
19:26 32.9 °F 31.9 °F 29.96 in Calm   4.0 mph 96% 0.00 in 0.00 W/m2
19:31 32.9 °F 31.9 °F 29.97 in Calm   2.0 mph 96% 0.00 in 0.00 W/m2
19:36 32.9 °F 31.6 °F 29.97 in Calm   2.0 mph 95% 0.00 in 0.00 W/m2
19:41 32.9 °F 31.9 °F 29.97 in SE 1.0 mph 2.0 mph 96% 0.00 in 0.00 W/m2
19:46 32.9 °F 31.9 °F 29.97 in Calm   4.0 mph 96% 0.00 in 0.00 W/m2
19:51 32.9 °F 31.9 °F 29.97 in Calm     96% 0.00 in 0.00 W/m2
19:56 32.9 °F 31.9 °F 29.97 in SE 2.0 mph 2.0 mph 96% 0.00 in 0.00 W/m2
20:01 32.8 °F 31.8 °F 29.97 in SE 4.0 mph 5.0 mph 96% 0.00 in 0.00 W/m2
20:06 32.8 °F 31.8 °F 29.97 in SE 4.0 mph 5.0 mph 96% 0.00 in 0.00 W/m2
20:11 32.8 °F 31.8 °F 29.97 in Calm     96% 0.00 in 0.00 W/m2
20:16 32.8 °F 31.8 °F 29.97 in SE 4.0 mph 4.0 mph 96% 0.00 in 0.00 W/m2
20:21 32.8 °F 31.8 °F 29.98 in SE 7.0 mph 7.0 mph 96% 0.00 in 0.00 W/m2
20:26 32.8 °F 31.8 °F 29.98 in Calm     96% 0.00 in 0.00 W/m2
20:31 32.8 °F 31.8 °F 29.98 in Calm   6.0 mph 96% 0.00 in 0.00 W/m2
20:36 32.7 °F 31.7 °F 29.98 in Calm   5.0 mph 96% 0.00 in 0.00 W/m2
20:41 32.7 °F 31.7 °F 29.98 in Calm   7.0 mph 96% 0.00 in 0.00 W/m2
20:46 32.7 °F 31.7 °F 29.98 in Calm     96% 0.00 in 0.00 W/m2
20:51 32.7 °F 31.7 °F 29.98 in Calm     96% 0.00 in 0.00 W/m2
20:56 32.7 °F 31.7 °F 29.98 in Calm     96% 0.00 in 0.00 W/m2
21:01 32.7 °F 31.7 °F 29.99 in Calm     96% 0.00 in 0.00 W/m2
21:06 32.7 °F 31.7 °F 29.99 in Calm     96% 0.00 in 0.00 W/m2
21:11 32.8 °F 31.8 °F 29.99 in Calm     96% 0.00 in 0.00 W/m2
21:16 32.8 °F 31.8 °F 29.99 in Calm     96% 0.00 in 0.00 W/m2
21:21 32.8 °F 31.8 °F 29.99 in Calm     96% 0.00 in 0.00 W/m2
21:26 32.8 °F 31.8 °F 29.99 in Calm     96% 0.00 in 0.00 W/m2
21:31 32.8 °F 31.8 °F 29.99 in Calm     96% 0.00 in 0.00 W/m2
21:36 32.8 °F 31.8 °F 29.99 in Calm     96% 0.00 in 0.00 W/m2
21:41 32.8 °F 31.8 °F 29.99 in Calm     96% 0.00 in 0.00 W/m2
21:46 32.8 °F 31.8 °F 29.99 in Calm     96% 0.00 in 0.00 W/m2
21:51 32.8 °F 31.8 °F 29.99 in Calm     96% 0.00 in 0.00 W/m2
21:56 32.8 °F 31.8 °F 29.99 in Calm     96% 0.00 in 0.00 W/m2
22:01 32.8 °F 31.8 °F 29.99 in Calm     96% 0.00 in 0.00 W/m2
22:06 32.8 °F 31.8 °F 29.99 in Calm     96% 0.00 in 0.00 W/m2
22:11 32.8 °F 31.8 °F 29.99 in Calm     96% 0.00 in 0.00 W/m2
22:16 32.8 °F 31.8 °F 29.99 in Calm     96% 0.00 in 0.00 W/m2
22:21 32.8 °F 31.8 °F 30.00 in Calm     96% 0.00 in 0.00 W/m2
22:26 32.8 °F 31.8 °F 30.00 in Calm     96% 0.00 in 0.00 W/m2
22:31 32.8 °F 31.8 °F 30.00 in Calm     96% 0.00 in 0.00 W/m2
22:36 32.8 °F 31.8 °F 30.00 in Calm     96% 0.00 in 0.00 W/m2
22:41 32.8 °F 31.8 °F 30.00 in Calm     96% 0.00 in 0.00 W/m2
22:46 32.8 °F 31.8 °F 30.00 in Calm     96% 0.00 in 0.00 W/m2
22:51 32.8 °F 31.8 °F 30.00 in Calm     96% 0.00 in 0.00 W/m2
22:56 32.8 °F 31.8 °F 30.00 in Calm     96% 0.00 in 0.00 W/m2
23:01 32.8 °F 31.8 °F 30.00 in Calm     96% 0.00 in 0.00 W/m2
23:07 32.8 °F 31.8 °F 30.00 in Calm     96% 0.00 in 0.00 W/m2
23:12 32.8 °F 31.8 °F 30.00 in Calm     96% 0.00 in 0.00 W/m2
23:17 32.8 °F 31.8 °F 30.00 in Calm     96% 0.00 in 0.00 W/m2
23:22 32.8 °F 31.8 °F 30.00 in Calm     96% 0.00 in 0.00 W/m2
23:27 32.8 °F 31.8 °F 30.00 in Calm     96% 0.00 in 0.00 W/m2
23:32 32.8 °F 31.8 °F 30.00 in Calm     96% 0.00 in 0.00 W/m2
23:37 32.8 °F 31.8 °F 30.00 in Calm     96% 0.00 in 0.00 W/m2
23:42 32.8 °F 31.8 °F 30.00 in Calm     96% 0.00 in 0.00 W/m2
23:47 32.8 °F 31.8 °F 30.00 in Calm     96% 0.00 in 0.00 W/m2
23:52 32.8 °F 31.8 °F 30.00 in Calm     96% 0.00 in 0.00 W/m2
23:57 32.8 °F 31.8 °F 30.00 in Calm     96% 0.00 in 0.00 W/m2
Foresthill Weather
 WU-history PHP script courtesy of   Juneau County Weather.
powered by Cumulus v1.9.3 (1059)
Ambient Weather VWS v14.00
Top Contact Website Map Copyright © 2007 - 2018 Foresthillweather.com Never base important decisions on this or any weather information obtained from the Internet